OPTUS D2                
1 32252U 07044A   19266.07282587 -.00000193  00000-0  00000+0 0  9995
2 32252   0.0181 177.9619 0003395   7.0536 354.8333  1.00270429 43783
INTELSAT 11 (IS-11)     
1 32253U 07044B   19266.41657715 -.00000279  00000-0  00000+0 0  9998
2 32253   0.0117 227.9591 0001449 338.6579 262.3492  1.00271008 43879
ARIANE 5 R/B            
1 32254U 07044C   19265.75375036  .00000064  00000-0 -88147-4 0  9993
2 32254   4.8157  12.9146 7081941  69.2028 349.5304  2.46762645107326
ARIANE 5 DEB [SYLDA]    
1 32255U 07044D   19264.46439260 -.00000236  00000-0 -37982-3 0  9993
2 32255   4.2960 287.9421 7170434 251.2547 112.5736  2.26313694 98878